Weather History for Clarion, IA

Change the Weather History Date:

Thursday, November 8, 2012

  Actual Average Record
Temperature  
Mean Temperature 44 °F -  
Max Temperature 57 °F 47 °F 80 °F (1999)
Min Temperature 32 °F 27 °F -3 °F (1991)
Degree Days  
Heating Degree Days 20    
Moisture  
Dew Point 35 °F    
Average Humidity 73    
Maximum Humidity 93    
Minimum Humidity 44    
Precipitation  
Precipitation 0.00 in - - ()
Sea Level Pressure  
Sea Level Pressure 29.98 in    
Wind  
Wind Speed 12 mph (SSE)    
Max Wind Speed 23 mph    
Max Gust Speed 28 mph    
Visibility 10 miles    
Events      
Averages and records for this station are not official NWS values.
T = Trace of Precipitation, MM = Missing Value Source: NWS Daily Summary

Daily Weather History Graph

Daily Weather History Graph

Search for Another Location

Airport:

Trip Planner

Search our weather history database for the weather conditions in past years. The results will help you decide how hot, cold, wet, or windy it might be!

Date:

Astronomy

Nov. 08, 2012 Rise Set
Actual Time 6:58 AM CST 4:58 PM CST
Civil Twilight 6:28 AM CST 5:28 PM CST
Nautical Twilight 5:54 AM CST 6:02 PM CST
Astronomical Twilight 5:21 AM CST 6:35 PM CST
Moon 12:46 AM CST (11/8) 1:47 PM CST (11/8)
Length of Visible Light 10h 59m
Length of Day
9h 59m
Waning Crescent, 32% of the Moon is Illuminated
Nov 8
Waning Crescent
Nov 13
New
Nov 20
First Quarter
Nov 28
Full
Dec 6
Last Quarter

Hourly Weather History & Observations

Time (CST) Temp. Windchill Dew Point Humidity Pressure Visibility Wind Dir Wind Speed Gust Speed Precip Events Conditions
12:15 AM 32.0 °F 25.6 °F 30.2 °F 93% 30.09 in 10.0 mi SE 6.9 mph - N/A   Clear
12:35 AM 32.0 °F 24.8 °F 28.4 °F 87% 30.09 in 10.0 mi SSE 8.1 mph - N/A   Clear
12:55 AM 32.0 °F 24.8 °F 30.2 °F 93% 30.08 in 10.0 mi SSE 8.1 mph - N/A   Clear
1:15 AM 33.8 °F 26.4 °F 30.2 °F 87% 30.07 in 10.0 mi SSE 9.2 mph - N/A   Clear
1:35 AM 33.8 °F 26.4 °F 30.2 °F 87% 30.07 in 10.0 mi SE 9.2 mph - N/A   Clear
1:55 AM 33.8 °F 26.4 °F 30.2 °F 87% 30.06 in 10.0 mi SE 9.2 mph - N/A   Clear
2:15 AM 32.0 °F 24.2 °F 30.2 °F 93% 30.06 in 10.0 mi SSE 9.2 mph - N/A   Clear
2:35 AM 33.8 °F 25.3 °F 30.2 °F 87% 30.06 in 10.0 mi SSE 11.5 mph - N/A   Clear
2:55 AM 33.8 °F 25.8 °F 30.2 °F 87% 30.05 in 10.0 mi SE 10.4 mph - N/A   Clear
3:15 AM 33.8 °F 25.8 °F 30.2 °F 87% 30.04 in 10.0 mi SE 10.4 mph - N/A   Clear
3:35 AM 33.8 °F 24.8 °F 30.2 °F 87% 30.03 in 10.0 mi SE 12.7 mph - N/A   Clear
3:55 AM 33.8 °F 25.8 °F 30.2 °F 87% 30.03 in 10.0 mi SE 10.4 mph - N/A   Clear
4:15 AM 33.8 °F 26.4 °F 30.2 °F 87% 30.03 in 10.0 mi SE 9.2 mph - N/A   Clear
4:35 AM 33.8 °F 25.3 °F 30.2 °F 87% 30.02 in 10.0 mi SSE 11.5 mph - N/A   Clear
4:55 AM 35.6 °F 27.1 °F 30.2 °F 81% 30.02 in 10.0 mi SSE 12.7 mph - N/A   Clear
5:15 AM 33.8 °F 24.8 °F 30.2 °F 87% 30.02 in 10.0 mi SSE 12.7 mph - N/A   Clear
5:35 AM 35.6 °F 27.1 °F 30.2 °F 81% 30.02 in 10.0 mi SSE 12.7 mph - N/A   Clear
5:55 AM 33.8 °F 24.3 °F 30.2 °F 87% 30.01 in 10.0 mi SSE 13.8 mph - N/A   Clear
6:15 AM 33.8 °F 23.2 °F 30.2 °F 87% 30.00 in 10.0 mi SSE 17.3 mph - N/A   Clear
6:35 AM 35.6 °F 26.2 °F 32.0 °F 87% 30.00 in 10.0 mi SSE 15.0 mph - N/A   Clear
6:55 AM 35.6 °F 26.2 °F 30.2 °F 81% 30.01 in 10.0 mi SSE 15.0 mph - N/A   Clear
7:15 AM 35.6 °F 26.2 °F 32.0 °F 87% 30.01 in 10.0 mi SSE 15.0 mph - N/A   Clear
7:35 AM 35.6 °F 25.9 °F 32.0 °F 87% 30.00 in 10.0 mi SSE 16.1 mph - N/A   Clear
7:55 AM 35.6 °F 25.2 °F 32.0 °F 87% 30.01 in 10.0 mi South 18.4 mph - N/A   Clear
8:15 AM 37.4 °F 27.5 °F 33.8 °F 87% 30.01 in 10.0 mi South 18.4 mph - N/A   Clear
8:35 AM 37.4 °F 26.9 °F 33.8 °F 87% 30.00 in 10.0 mi SSE 20.7 mph - N/A   Clear
8:55 AM 39.2 °F 29.8 °F 35.6 °F 87% 30.01 in 10.0 mi SSE 18.4 mph 24.2 mph N/A   Clear
9:15 AM 41.0 °F 32.2 °F 35.6 °F 81% 30.01 in 10.0 mi South 18.4 mph 26.5 mph N/A   Clear
9:35 AM 42.8 °F 34.3 °F 35.6 °F 76% 30.01 in 10.0 mi South 19.6 mph 24.2 mph N/A   Clear
9:55 AM 44.6 °F 36.9 °F 35.6 °F 71% 30.01 in 10.0 mi South 18.4 mph - N/A   Clear
10:15 AM 44.6 °F 37.2 °F 37.4 °F 76% 30.01 in 10.0 mi South 17.3 mph 23.0 mph N/A   Clear
10:35 AM 46.4 °F 39.2 °F 37.4 °F 71% 30.00 in 10.0 mi SSE 18.4 mph - N/A   Clear
10:55 AM 48.2 °F - 37.4 °F 66% 29.98 in 10.0 mi South 21.9 mph 26.5 mph N/A   Clear
11:15 AM 50.0 °F - 37.4 °F 62% 29.98 in 10.0 mi SSE 19.6 mph - N/A   Clear
11:35 AM 51.8 °F - 37.4 °F 58% 29.97 in 10.0 mi SSE 23.0 mph - N/A   Clear
11:55 AM 51.8 °F - 37.4 °F 58% 29.96 in 10.0 mi SSE 20.7 mph 27.6 mph N/A   Clear
12:15 PM 53.6 °F - 37.4 °F 54% 29.95 in 10.0 mi South 21.9 mph - N/A   Clear
12:55 PM 55.4 °F - 37.4 °F 51% 29.93 in 10.0 mi SSE 19.6 mph 26.5 mph N/A   Clear
1:15 PM 55.4 °F - 37.4 °F 51% 29.92 in 10.0 mi South 19.6 mph - N/A   Clear
1:35 PM 57.2 °F - 35.6 °F 44% 29.92 in 10.0 mi South 17.3 mph - N/A   Clear
1:55 PM 57.2 °F - 35.6 °F 44% 29.92 in 10.0 mi South 18.4 mph 25.3 mph N/A   Clear
2:15 PM 57.2 °F - 35.6 °F 44% 29.92 in 10.0 mi SSE 17.3 mph 23.0 mph N/A   Clear
2:35 PM 57.2 °F - 35.6 °F 44% 29.92 in 10.0 mi South 16.1 mph - N/A   Clear
2:55 PM 57.2 °F - 37.4 °F 48% 29.91 in 10.0 mi SSE 13.8 mph - N/A   Clear
3:15 PM 57.2 °F - 35.6 °F 44% 29.92 in 10.0 mi South 15.0 mph - N/A   Clear
3:35 PM 57.2 °F - 37.4 °F 48% 29.92 in 10.0 mi SSE 15.0 mph - N/A   Clear
3:55 PM 57.2 °F - 37.4 °F 48% 29.92 in 10.0 mi SSE 13.8 mph - N/A   Clear
4:15 PM 55.4 °F - 37.4 °F 51% 29.93 in 10.0 mi South 11.5 mph - N/A   Clear
4:35 PM 55.4 °F - 37.4 °F 51% 29.93 in 10.0 mi SSE 8.1 mph - N/A   Clear
4:55 PM 51.8 °F - 37.4 °F 58% 29.93 in 10.0 mi SE 6.9 mph - N/A   Clear
5:15 PM 51.8 °F - 37.4 °F 58% 29.94 in 10.0 mi SE 6.9 mph - N/A   Clear
5:35 PM 50.0 °F - 37.4 °F 62% 29.94 in 10.0 mi ESE 8.1 mph - N/A   Clear
5:55 PM 48.2 °F - 37.4 °F 66% 29.94 in 10.0 mi ESE 10.4 mph - N/A   Clear
6:15 PM 48.2 °F - 37.4 °F 66% 29.94 in 10.0 mi ESE 9.2 mph - N/A   Clear
6:35 PM 46.4 °F 41.5 °F 37.4 °F 71% 29.94 in 10.0 mi ESE 10.4 mph - N/A   Clear
6:55 PM 46.4 °F 41.5 °F 37.4 °F 71% 29.94 in 10.0 mi ESE 10.4 mph - N/A   Clear
7:15 PM 46.4 °F 41.5 °F 37.4 °F 71% 29.95 in 10.0 mi ESE 10.4 mph - N/A   Clear
7:35 PM 46.4 °F 41.5 °F 37.4 °F 71% 29.95 in 10.0 mi ESE 10.4 mph - N/A   Clear
7:55 PM 44.6 °F 39.7 °F 37.4 °F 76% 29.95 in 10.0 mi ESE 9.2 mph - N/A   Clear
8:15 PM 44.6 °F 39.2 °F 37.4 °F 76% 29.95 in 10.0 mi SE 10.4 mph - N/A   Clear
8:35 PM 44.6 °F 38.8 °F 37.4 °F 76% 29.95 in 10.0 mi SE 11.5 mph - N/A   Clear
8:55 PM 44.6 °F 39.2 °F 37.4 °F 76% 29.95 in 10.0 mi SE 10.4 mph - N/A   Clear
9:15 PM 44.6 °F 39.2 °F 37.4 °F 76% 29.95 in 10.0 mi SE 10.4 mph - N/A   Clear
9:35 PM 44.6 °F 38.8 °F 37.4 °F 76% 29.95 in 10.0 mi SE 11.5 mph - N/A   Clear
9:55 PM 44.6 °F 38.8 °F 37.4 °F 76% 29.95 in 10.0 mi SE 11.5 mph - N/A   Clear
10:15 PM 42.8 °F 36.6 °F 37.4 °F 81% 29.95 in 10.0 mi SE 11.5 mph - N/A   Clear
10:35 PM 42.8 °F 37.0 °F 37.4 °F 81% 29.94 in 10.0 mi ESE 10.4 mph - N/A   Clear
10:55 PM 42.8 °F 37.0 °F 35.6 °F 76% 29.94 in 10.0 mi ESE 10.4 mph - N/A   Clear
11:15 PM 41.0 °F 35.2 °F 35.6 °F 81% 29.95 in 10.0 mi SE 9.2 mph - N/A   Clear
11:35 PM 41.0 °F 35.2 °F 35.6 °F 81% 29.95 in 10.0 mi ESE 9.2 mph - N/A   Clear
11:55 PM 41.0 °F 35.2 °F 35.6 °F 81% 29.95 in 10.0 mi ESE 9.2 mph - N/A   Clear